STARLINK-34964 (65239 NORAD) Tracking and Keplerian Element Data

This shows tracking and keplerian element data for the satellite.

Feedback or suggestion? Click here.




ElementValue
Catalog65239
NameSTARLINK-34964
Epoch Orbit1983
Epoch Day354.07333891
Epoch Year2025
RAAN34.4077
Inclination97.6036
Eccentricity5.54E-05
Argument of Perigee145.1013
Mean Anonmoly215.025
Mean Motion15.0565329
Decay Rate2.643E-05
L11 65239U 25179E 25354.07333891 .00002643 00000+0 18729-3 0 9996
L22 65239 97.6036 34.4077 0000554 145.1013 215.0250 15.05653290 19834



Live tracking and technical data element details for STARLINK-34964 (NORAD 65239). STARLINK-34964 can be tracked NOW for your location showing map with azimuth and elevation plus other details from your city location.







IsCatalogInMostPopularTable: catalog: 65239, numindb: 3
Update: records affected: 1



GetName: 65239 STARLINK-34964

Hit Count: updated at: Sat, 07 Feb 2026 07:13:55 GMT